Temp
10 9 9 9 9 9 9 9 9 10 10 10 11 11 11 10 12 11 10 13 13 14
10 9 9 8 8 8 8 9 9 9 10 10 10 10 10 10 10 12 11 12 14 13
10 9 8 8 8 8 8 8 9 9 10 10 9 10 10 9 10 9 10 10 12 13
10 9 8 8 8 7 7 7 8 9 10 10 9 10 9 9 8 10 9 10 11 12
10 9 8 7 7 7 7 7 8 8 8 8 9 9 8 8 9 10 10 10 12 12
9 9 8 8 7 7 7 8 7 8 8 7 8 8 8 8 9 10 11 12 12 12
9 9 8 8 7 7 7 7 7 7 7 7 7 8 8 9 10 11 11 12 12 12
9 9 8 8 7 7 7 7 7 7 7 7 7 7 8 9 10 11 10 10 11 11
8 8 8 8 7 7 7 7 7 7 7 8 8 8 8 8 9 10 10 9 10 10
7 8 8 8 7 7 8 7 7 7 7 7 7 8 8 8 9 9 9 9 9 9
7 6 7 7 7 7 8 7 7 7 7 6 7 8 8 8 8 8 8 8 8 9
6 6 6 5 6 7 7 7 7 7 7 7 7 7 7 7 7 7 7 7 7 7
5 5 5 4 4 4 5 5 5 5 5 6 7 7 7 7 7 6 6 6 6 6
5 5 4 4 4 3 3 3 3 3 3 4 4 5 6 6 5 4 4 4 4 4
Height
719 718 718 718 719 719 720 720 721 723 725 727 730 734 739 743 750 760 771 771 781 787
715 713 713 713 713 712 713 715 717 717 718 722 723 726 730 738 744 749 764 766 775 783
709 709 709 709 709 708 708 709 710 711 713 716 719 721 723 734 739 749 753 765 773 782
706 705 705 707 707 706 707 706 704 705 709 712 715 715 724 731 739 737 754 763 767 776
702 702 702 703 703 705 705 705 702 705 708 709 712 715 721 727 735 737 751 759 762 773
700 699 699 699 702 703 705 707 706 707 712 714 710 713 720 726 729 737 744 752 761 769
698 697 696 697 698 701 706 707 711 713 713 715 717 717 722 727 733 737 745 752 759 766
696 696 695 696 697 702 705 710 714 715 718 719 722 722 725 730 732 740 745 752 761 771
699 698 696 697 698 702 707 712 717 719 723 725 728 729 734 736 740 742 751 758 766 771
703 701 700 701 703 705 709 713 716 719 724 726 731 733 734 737 740 747 756 763 766 770
709 706 704 705 705 707 710 714 717 720 723 728 732 736 739 743 749 754 759 763 766 770
716 713 711 710 710 711 713 717 720 724 726 731 734 738 742 745 750 754 758 762 765 768
722 718 716 715 716 717 717 721 724 727 730 732 734 737 740 744 746 751 755 760 764 768
726 724 723 722 723 724 724 727 730 732 736 736 738 740 742 745 747 752 757 762 766 770
Wind_Speed
21 21 23 25 26 27 26 26 30 32 27 32 39 41 42 42 46 43 33 42 36 32
22 19 20 23 26 29 29 30 28 30 32 28 37 42 46 41 37 47 39 37 41 35
19 16 14 17 20 23 22 26 28 30 31 33 31 40 37 34 39 34 35 36 40 34
17 15 10 11 14 16 4 11 23 27 30 32 33 37 34 33 32 38 33 38 37 33
16 15 12 12 14 16 5 2 12 10 12 23 35 34 33 32 33 38 36 36 32 27
15 15 16 13 13 10 11 6 9 11 9 9 20 28 30 30 31 35 35 33 30 27
11 14 17 17 16 13 12 12 13 13 15 15 13 19 24 28 29 29 28 26 22 21
3 7 9 13 18 17 11 13 12 11 9 13 9 15 14 14 20 21 19 18 19 21
9 3 2 6 16 21 18 16 19 12 9 12 8 3 8 10 15 17 17 18 18 18
15 12 5 6 13 17 16 16 18 23 15 9 8 8 7 8 11 11 12 15 18 18
16 15 14 11 12 13 12 10 9 13 24 20 13 10 11 12 13 13 15 16 17 19
15 18 19 18 16 16 20 15 12 10 10 20 15 12 14 18 18 18 16 13 14 16
14 18 22 22 21 21 23 22 18 17 15 12 15 17 18 20 22 20 17 13 11 12
16 17 18 22 23 26 29 29 29 30 26 23 20 14 13 15 19 21 22 21 19 16
Wind_Direction
286 269 254 252 246 239 238 234 231 228 227 216 207 198 187 180 184 184 190 186 186 180
290 267 268 262 250 242 239 240 239 224 216 209 192 187 185 181 180 188 196 187 192 190
288 265 267 262 243 233 236 232 228 215 210 210 189 184 176 180 179 182 185 187 187 186
284 262 257 234 244 224 207 223 210 198 200 202 193 194 187 178 181 176 181 188 185 180
280 262 241 216 211 223 167 57 154 144 158 187 193 183 181 176 175 172 184 184 176 179
280 258 246 226 206 194 184 171 93 140 125 111 153 162 175 177 171 179 175 174 182 186
283 268 248 234 208 191 182 150 126 105 107 100 77 135 163 171 171 164 168 168 175 181
313 281 263 221 200 182 171 182 162 128 119 102 85 69 91 134 145 150 148 157 167 180
46 41 18 196 178 185 192 184 186 176 149 142 143 111 99 122 133 131 148 157 167 171
61 65 98 154 162 161 176 194 187 201 205 206 168 148 128 108 105 125 146 160 159 160
62 71 93 132 141 165 176 177 181 182 186 204 214 198 173 171 178 181 181 184 181 183
66 80 83 81 90 126 141 141 143 154 170 197 221 194 194 183 178 179 183 194 202 198
70 77 81 86 87 95 108 111 120 104 112 160 187 196 194 187 184 169 159 169 186 204
73 82 89 93 91 94 95 90 84 83 80 89 96 112 145 161 149 142 130 123 119 123